Location: FWAS Thompsen Ranch
(33.4402°N, 97.5607°W)
Time: 19:57:36
(UTC-06:00)

ISS - Visible Passes

Search period start: 22 November 2017 00:00
Search period end: 02 December 2017 00:00
Orbit: 402 x 407 km, 51.6° (Epoch: 23 November)

Date Brightness Start Highest point End Pass type
(mag) Time Alt. Az. Time Alt. Az. Time Alt. Az.
23 Nov -1.4 18:31:48 10° SE 18:32:21 11° SE 18:32:21 11° SE visible
24 Nov -2.4 19:13:23 10° SW 19:15:24 34° SSW 19:15:24 34° SSW visible
25 Nov -2.8 18:21:30 10° SSW 18:24:26 31° SE 18:25:41 23° E visible
26 Nov -2.7 19:05:24 10° WSW 19:08:29 38° NW 19:08:32 38° NW visible
27 Nov -3.8 18:12:52 10° SW 18:16:08 84° NW 18:18:37 16° NE visible
28 Nov -1.5 18:58:11 10° WNW 19:00:27 17° NNW 19:01:16 16° NNW visible
29 Nov -2.3 18:05:00 10° WSW 18:07:56 30° NW 18:10:53 10° NNE visible
01 Dec -1.3 17:57:57 10° WNW 17:59:52 15° NNW 18:01:47 10° N visible
